Terminal Aerodrome Forecast
Issued by NWS Milwaukee/Sullivan, WI

Home | Current Version | Previous Version | Text Only | Print | Product List | Glossary On
Versions: 1 2 3 4 5 6 7 8 9 10 11 12 13 14 15 16 17 18 19 20 21 22 23 24 25 26 27 28 29 30 31 32 33 34 35 36 37 38 39 40 41 42 43 44 45 46 47 48 49 50
702
FTUS43 KMKX 231000 AAB
TAFMSN
TAF AMD
KMSN 231000Z 2310/2406 32006KT P6SM SCT010 BKN025
     FM231400 01007KT P6SM BKN010
     FM232100 07013G20KT P6SM OVC025
     FM240200 06011G20KT P6SM -RA SCT015 OVC030
     FM240500 05015G24KT 4SM -RA BR OVC015=

USA.gov is the U.S. government's official web portal to all federal, state and local government web resources and services.